Philip, SD

4:41 PM MST on February 12, 2016 (GMT -0700)
Philip

Weather History for KPHP - July, 2013

Change the Weather History Date:

Tuesday, July 9, 2013

  Actual Average Record
Temperature  
Mean Temperature 75 °F 74 °F  
Max Temperature 91 °F 88 °F 109 °F (1989)
Min Temperature 59 °F 59 °F 47 °F (1958)
Degree Days  
Heating Degree Days 0 0  
Month to date heating degree days 0 3  
Since 1 June heating degree days 64 66  
Since 1 July heating degree days 0 3  
Cooling Degree Days 10 9  
Month to date cooling degree days 85 73  
Year to date cooling degree days 233 223  
Since 1 June cooling degree days 212 196  
Growing Degree Days 25 (Base 50)    
Moisture  
Dew Point 56 °F    
Average Humidity 63    
Maximum Humidity 97    
Minimum Humidity 29    
Precipitation  
Precipitation T in 0.08 in 0.83 in (1955)
Month to date precipitation 0.19 0.71  
Year to date precipitation 7.65 10.56  
Sea Level Pressure  
Sea Level Pressure 29.98 in    
Wind  
Wind Speed 7 mph (North)    
Max Wind Speed 17 mph    
Max Gust Speed 22 mph    
Visibility 10 miles    
Events Rain    
T = Trace of Precipitation, MM = Missing Value Source: NWS Daily Summary

Daily Weather History Graph

Daily Weather History Graph

Search for Another Location

Airport or City:

Trip Planner

Search our weather history database for the weather conditions in past years. The results will help you decide how hot, cold, wet, or windy it might be!

Date:

Astronomy

Jul. 09, 2013 Rise Set
Actual Time 5:12 AM MDT 8:30 PM MDT
Civil Twilight 4:37 AM MDT 9:05 PM MDT
Nautical Twilight 3:50 AM MDT 9:51 PM MDT
Astronomical Twilight 2:53 AM MDT 10:48 PM MDT
Moon 6:43 AM MDT (7/9) 9:02 PM MDT (7/9)
Length of Visible Light 16h 28m
Length of Day
15h 17m
New Moon, 2% of the Moon is Illuminated
Jul 9
New Moon
Jul 15
First Quarter
Jul 22
Full
Jul 29
Last Quarter
Aug 6
New

Hourly Weather History & Observations

Time (MDT) Temp. Heat Index Dew Point Humidity Pressure Visibility Wind Dir Wind Speed Gust Speed Precip Events Conditions
12:05 AM 73.4 °F - 60.8 °F 65% 29.98 in 10.0 mi NNW 21.9 mph 33.4 mph N/A   Partly Cloudy
12:55 AM 64.9 °F - 62.1 °F 90% 29.90 in 10.0 mi NNE 17.3 mph 31.1 mph 0.00 in Rain Light Rain
1:55 AM 64.0 °F - 60.1 °F 87% 29.95 in 10.0 mi Calm Calm - 0.00 in   Clear
2:55 AM 63.0 °F - 60.1 °F 90% 29.89 in 10.0 mi SE 5.8 mph - N/A   Clear
3:55 AM 61.0 °F - 59.0 °F 93% 29.93 in 10.0 mi WNW 9.2 mph - N/A   Clear
4:55 AM 60.1 °F - 57.9 °F 93% 29.93 in 10.0 mi WNW 5.8 mph - N/A   Clear
5:55 AM 60.1 °F - 57.0 °F 90% 29.94 in 10.0 mi NW 9.2 mph - N/A   Clear
6:55 AM 64.0 °F - 59.0 °F 84% 29.95 in 10.0 mi West 5.8 mph - N/A   Clear
7:55 AM 70.0 °F - 59.0 °F 68% 29.96 in 10.0 mi NW 9.2 mph - N/A   Clear
8:55 AM 75.0 °F - 57.9 °F 55% 29.98 in 10.0 mi NNW 10.4 mph - N/A   Clear
9:55 AM 79.0 °F - 55.9 °F 45% 29.99 in 10.0 mi North 10.4 mph - N/A   Clear
10:55 AM 82.0 °F - 52.0 °F 35% 29.99 in 10.0 mi North 9.2 mph 20.7 mph N/A   Clear
11:55 AM 84.9 °F 83.2 °F 53.1 °F 33% 29.98 in 10.0 mi Variable 5.8 mph - N/A   Clear
12:55 PM 87.1 °F 85.3 °F 55.0 °F 33% 29.99 in 10.0 mi NNW 10.4 mph - N/A   Clear
1:55 PM 89.1 °F 87.1 °F 55.0 °F 31% 29.98 in 10.0 mi NNE 10.4 mph - N/A   Clear
2:55 PM 89.1 °F 86.9 °F 54.0 °F 30% 29.98 in 10.0 mi ENE 5.8 mph - N/A   Clear
3:55 PM 89.1 °F 86.7 °F 53.1 °F 29% 29.98 in 10.0 mi Variable 6.9 mph - N/A   Partly Cloudy
4:55 PM 90.0 °F 87.5 °F 53.1 °F 28% 29.99 in 10.0 mi NNE 8.1 mph - N/A   Scattered Clouds
5:55 PM 88.0 °F 85.9 °F 54.0 °F 31% 29.99 in 10.0 mi North 12.7 mph - N/A   Clear
6:55 PM 86.0 °F 84.0 °F 53.1 °F 32% 30.00 in 10.0 mi North 10.4 mph - N/A   Clear
7:55 PM 82.0 °F 81.2 °F 53.1 °F 37% 30.01 in 10.0 mi NNE 4.6 mph - N/A   Clear
8:55 PM 75.9 °F - 54.0 °F 46% 30.03 in 10.0 mi NE 8.1 mph - N/A   Clear
9:55 PM 69.1 °F - 55.0 °F 61% 30.07 in 10.0 mi ENE 4.6 mph - N/A   Clear
10:55 PM 68.0 °F - 55.0 °F 63% 30.08 in 10.0 mi Calm Calm - N/A   Clear
11:55 PM 64.9 °F - 55.9 °F 73% 30.10 in 10.0 mi NE 5.8 mph - N/A   Clear